Tacoma Narrows, WA
on Thursday, December 27, 2012

Thursday
Previous Day Next Day
Daily Summary
 ActualAverageRecord
Temperature
Mean Temperature °F / °C °F / °C  
Max Temperature 46°F / 8°C 43°F / 6°C 52°F / 11°C (2002)
Min Temperature 39°F / 4°C 36°F / 2°C 33°F / 0°C (2006)
Degree Days
Heating Degree Days 22    
Moisture
Dew Point 38°F / 3°C   
Average Humidity 83    
Maximum Humidity 89    
Minimum Humidity 71    
Precipitation
Precipitation 0.01 in / 0.25 cm in / cm in / cm ()
Wind
Wind Speed 9 mph / 14 km/h   
Max Wind Speed 14 mph / 23 km/h   
Max Gust Speed mph / km/h   
Visibility 10 miles / 16 kilometers   
Events Rain   
Averages and records for this station are not official NWS values.
Key: T is trace of precipitation, MM is missing value
Source: NWS Daily Summary
Seasonal Weather Averages
Time(PST)TemperatureDew PointHumidity Pressure Visibility Wind DirectionWind SpeedGust SpeedPrecipitationEvents Conditions
12:53 AM 42.1°F / 5.6°C 37.9°F / 3.3°C 85% 29.95 in / 1014.1 hPa 10.0 miles / 16.1 kilometers South 13.8 mph / 22.2 km/h - 0.01 in / 0.3 cm   Overcast
1:02 AM 42.8°F / 6.0°C 37.4°F / 3.0°C 81% 29.94 in / 1013.8 hPa 10.0 miles / 16.1 kilometers South 12.7 mph / 20.4 km/h - N/A   Overcast
1:26 AM 42.8°F / 6.0°C 37.4°F / 3.0°C 81% 29.95 in / 1014.1 hPa 10.0 miles / 16.1 kilometers SSW 13.8 mph / 22.2 km/h - N/A   Overcast
1:53 AM 42.1°F / 5.6°C 37.9°F / 3.3°C 85% 29.98 in / 1015.0 hPa 10.0 miles / 16.1 kilometers South 13.8 mph / 22.2 km/h - 0.00 in / 0.0 cm Rain Light Rain
2:53 AM 42.1°F / 5.6°C 37.9°F / 3.3°C 85% 30.00 in / 1015.7 hPa 10.0 miles / 16.1 kilometers SSW 11.5 mph / 18.5 km/h - 0.00 in / 0.0 cm   Overcast
3:53 AM 42.1°F / 5.6°C 39.0°F / 3.9°C 89% 30.01 in / 1016.1 hPa 10.0 miles / 16.1 kilometers South 9.2 mph / 14.8 km/h - N/A   Overcast
4:07 AM 42.8°F / 6.0°C 39.2°F / 4.0°C 87% 30.00 in / 1015.8 hPa 10.0 miles / 16.1 kilometers SSW 9.2 mph / 14.8 km/h - N/A   Overcast
4:14 AM 42.8°F / 6.0°C 39.2°F / 4.0°C 87% 30.00 in / 1015.8 hPa 10.0 miles / 16.1 kilometers South 8.1 mph / 13.0 km/h - N/A   Overcast
4:35 AM 42.8°F / 6.0°C 39.2°F / 4.0°C 87% 30.01 in / 1016.1 hPa 10.0 miles / 16.1 kilometers SSW 8.1 mph / 13.0 km/h - N/A   Overcast
4:37 AM 42.8°F / 6.0°C 39.2°F / 4.0°C 87% 30.01 in / 1016.1 hPa 10.0 miles / 16.1 kilometers SSW 5.8 mph / 9.3 km/h - N/A   Overcast
4:41 AM 42.8°F / 6.0°C 39.2°F / 4.0°C 87% 30.01 in / 1016.1 hPa 10.0 miles / 16.1 kilometers SSW 6.9 mph / 11.1 km/h - N/A   Overcast
4:53 AM 42.1°F / 5.6°C 37.9°F / 3.3°C 85% 30.02 in / 1016.5 hPa 10.0 miles / 16.1 kilometers SSW 6.9 mph / 11.1 km/h - N/A   Overcast
5:01 AM 42.8°F / 6.0°C 39.2°F / 4.0°C 87% 30.01 in / 1016.1 hPa 10.0 miles / 16.1 kilometers SSW 5.8 mph / 9.3 km/h - N/A   Overcast
5:08 AM 42.8°F / 6.0°C 39.2°F / 4.0°C 87% 30.02 in / 1016.5 hPa 10.0 miles / 16.1 kilometers SSW 6.9 mph / 11.1 km/h - N/A   Overcast
5:53 AM 42.1°F / 5.6°C 39.0°F / 3.9°C 89% 30.04 in / 1017.1 hPa 10.0 miles / 16.1 kilometers South 6.9 mph / 11.1 km/h - N/A   Overcast
6:01 AM 42.8°F / 6.0°C 39.2°F / 4.0°C 87% 30.03 in / 1016.8 hPa 10.0 miles / 16.1 kilometers South 5.8 mph / 9.3 km/h - N/A   Overcast
6:33 AM 42.8°F / 6.0°C 37.4°F / 3.0°C 81% 30.04 in / 1017.2 hPa 10.0 miles / 16.1 kilometers WSW 3.5 mph / 5.6 km/h - N/A   Overcast
6:53 AM 41.0°F / 5.0°C 37.9°F / 3.3°C 89% 30.05 in / 1017.6 hPa 10.0 miles / 16.1 kilometers WSW 3.5 mph / 5.6 km/h - N/A   Overcast
7:31 AM 42.8°F / 6.0°C 37.4°F / 3.0°C 81% 30.05 in / 1017.5 hPa 10.0 miles / 16.1 kilometers SW 5.8 mph / 9.3 km/h - N/A   Overcast
7:53 AM 42.1°F / 5.6°C 37.9°F / 3.3°C 85% 30.07 in / 1018.1 hPa 10.0 miles / 16.1 kilometers SW 5.8 mph / 9.3 km/h - N/A   Overcast
8:02 AM 42.8°F / 6.0°C 37.4°F / 3.0°C 81% 30.06 in / 1017.8 hPa 10.0 miles / 16.1 kilometers SW 5.8 mph / 9.3 km/h - N/A   Overcast
8:53 AM 41.0°F / 5.0°C 37.9°F / 3.3°C 89% 30.09 in / 1019.0 hPa 10.0 miles / 16.1 kilometers West 4.6 mph / 7.4 km/h - N/A   Overcast
9:53 AM 42.1°F / 5.6°C 39.0°F / 3.9°C 89% 30.12 in / 1019.7 hPa 10.0 miles / 16.1 kilometers SSW 4.6 mph / 7.4 km/h - N/A   Overcast
10:24 AM 42.8°F / 6.0°C 39.2°F / 4.0°C 87% 30.11 in / 1019.5 hPa 10.0 miles / 16.1 kilometers SSW 5.8 mph / 9.3 km/h - N/A   Overcast
10:53 AM 44.1°F / 6.7°C 39.0°F / 3.9°C 82% 30.12 in / 1019.9 hPa 10.0 miles / 16.1 kilometers SSW 6.9 mph / 11.1 km/h - N/A   Overcast
11:53 AM 44.1°F / 6.7°C 37.9°F / 3.3°C 79% 30.13 in / 1020.1 hPa 10.0 miles / 16.1 kilometers SSW 6.9 mph / 11.1 km/h - N/A   Overcast
12:53 PM 45.0°F / 7.2°C 37.9°F / 3.3°C 76% 30.13 in / 1020.3 hPa 10.0 miles / 16.1 kilometers SSW 10.4 mph / 16.7 km/h - N/A   Overcast
1:53 PM 46.0°F / 7.8°C 37.9°F / 3.3°C 73% 30.12 in / 1020.0 hPa 10.0 miles / 16.1 kilometers South 11.5 mph / 18.5 km/h - N/A   Mostly Cloudy
2:53 PM 45.0°F / 7.2°C 37.0°F / 2.8°C 74% 30.14 in / 1020.6 hPa 10.0 miles / 16.1 kilometers South 10.4 mph / 16.7 km/h - N/A   Mostly Cloudy
3:53 PM 44.6°F / 7.0°C 35.6°F / 2.0°C 71% 30.14 in / 1020.5 hPa 10.0 miles / 16.1 kilometers SSW 6.9 mph / 11.1 km/h - N/A   Mostly Cloudy
4:53 PM 43.0°F / 6.1°C 37.0°F / 2.8°C 80% 30.16 in / 1021.1 hPa 10.0 miles / 16.1 kilometers South 9.2 mph / 14.8 km/h - N/A   Mostly Cloudy
5:53 PM 42.1°F / 5.6°C 36.0°F / 2.2°C 79% 30.16 in / 1021.1 hPa 10.0 miles / 16.1 kilometers SSE 5.8 mph / 9.3 km/h - N/A   Mostly Cloudy
6:53 PM 42.1°F / 5.6°C 36.0°F / 2.2°C 79% 30.16 in / 1021.2 hPa 10.0 miles / 16.1 kilometers SSW 9.2 mph / 14.8 km/h - N/A   Overcast
7:53 PM 42.1°F / 5.6°C 36.0°F / 2.2°C 79% 30.16 in / 1021.2 hPa 10.0 miles / 16.1 kilometers SSW 5.8 mph / 9.3 km/h - 0.00 in / 0.0 cm   Overcast
8:53 PM 41.0°F / 5.0°C 36.0°F / 2.2°C 82% 30.15 in / 1021.0 hPa 10.0 miles / 16.1 kilometers South 4.6 mph / 7.4 km/h - N/A   Mostly Cloudy
9:53 PM 41.0°F / 5.0°C 35.1°F / 1.7°C 79% 30.17 in / 1021.4 hPa 10.0 miles / 16.1 kilometers SSE 4.6 mph / 7.4 km/h - N/A   Mostly Cloudy
10:53 PM 41.0°F / 5.0°C 35.1°F / 1.7°C 79% 30.17 in / 1021.4 hPa 10.0 miles / 16.1 kilometers Calm Calm - N/A   Overcast
11:53 PM 39.9°F / 4.4°C 33.1°F / 0.6°C 77% 30.17 in / 1021.4 hPa 10.0 miles / 16.1 kilometers SE 3.5 mph / 5.6 km/h - N/A   Mostly Cloudy
Moon Phase
Dec. 27 Dec. 28 Jan. 04 Jan. 11 Jan. 18
Sunrise:07:56 AM (PST) Moon Rise:04:17 PM (PST)12/27
Sunset:04:26 PM (PST) Moon Set:07:09 AM (PST)12/27

Copyright © 2014 The Weather Underground, Inc.